Dean International
Flight School

Career Spotlight

Mika

Mika

Congratulations to Mika from Khazakstan. She recently sent us this photo of her flying an Airbus airliner.

More...
Mika's Success Story
close

Congratulations to Mika from Khazakstan. She recently sent us this photo of her flying an Airbus airliner.

Mario

Mario

My dreams could not have been realized if I wouldn't have been part of the Dean International family.

More...
Mario's Success Story
close

"My dreams could not have been realized if I wouldn't have been part of the Dean International family. Thank you Robert, thanks to all my co-workers, and thanks to all of my students!"

Fernando

Fernando

I am now working as a First Officer at TACA and am enjoying every moment of it.

More...
Fernando's Success Story
close

"Will never forget my time of flight training at Dean International. I am now working as a First Officer at TACA and am enjoying every moment of it."

Alvaro

Alvaro

Because of the flight time I was able to built while instructing, I got the experience needed to apply to an airline in Colombia.

More...
Alvaro's Success Story
close

Dean alumnus Alvaro Londoño currently flies with Tampa Cargo. He says of his experience at Dean: "I want to take this opportunity to thank you for giving me the chance to build my experience and expand my knowledge in Dean International. Because of the flight time I was able to built flight instructing, I got the experience needed to apply to an airline in Colombia."

Ralph

Ralph

Every Aruban student of Dean International has made it into Tiara Air Aruba, that is very nice.

More...
Ralph's Success Story
close

"Next to me is my Co-Pilot, Elison. This picture was taken on our first flight together, which was almost exactly 5 years after I finished at Dean International. [...] Every Aruban student of Dean International has made it into Tiara Air Aruba. [...] The future looks bright here in Aruba."

Rohaan

Rohaan

The [..] staff will all work diligently to help you finish your certificates as safely and efficiently as possible.

More...
Rohaan's Success Story
close

After receiving very hard times from other flight schools [...], I came to Dean International where Robert Dean personally sat down with me and gave me a financial and chronological look into how much remained to finish my private pilot certificate. Through his hard efforts as an instructor and mentor, I was able to finish my private pilot certificate within one week.

Welcome to Dean International

In over two decades, Dean International has educated over 7,000 pilots from all over the world, including over 1,000 students from India alone. By offering a great training experience, a friendly service staff, an ample variety of aircraft, and by improving constantly, we have become one of the largest, most prestigious FAA 141-approved flight schools in North America. Located in Miami, Florida, USA, our flight school offers an ideal location for year-round, "learn to fly" weather, flight training. Dean International is not only well-equipped to provide services to professional trainees but also caters to General Aviation renters. Visit or contact our headquarters at Kendall-Tamiami Executive Airport located in Miami, FL today to learn more about us, or simply read more about our programs if you are an international student interested in joining our school.

Local Airport Information
TAF FOR KTMB (Issued: Mon, May 25th 2015 3:06 PM UTC)
TAF
      AMD KTMB 251505Z 2515/2612 10012KT P6SM VCSH FEW025 BKN050
      FM251600 11017G25KT P6SM FEW020 BKN040
      FM260000 10010KT P6SM FEW020 SCT040
     
METAR FOR KTMB (Issued: Mon, May 25th 2015 4:53 PM UTC):
KTMB 251653Z 10014G23KT 10SM FEW025 32/22 A3016 RMK AO2 SLP211 T03220217

This weather information is provided by the National Weather Service.
It is automatically refreshed every three minutes.
TAF FOR KHST (Issued: Mon, May 25th 2015 4:07 PM UTC)
TAF KHST 2516/2622 09012G18KT 9999 FEW025 QNH3011INS
      BECMG 2601/2602 11009KT 9999 SKC QNH3008INS
      BECMG 2614/2615 08010G18KT 9999 SCT030 QNH3015INS TX32/2520Z TN25/2608Z
     
METAR FOR KHST (Issued: Mon, May 25th 2015 4:58 PM UTC):
KHST 251658Z AUTO 08013G18KT 10SM FEW170 30/23 A3015 RMK AO2 SLP213 T02990228

This weather information is provided by the National Weather Service.
It is automatically refreshed every three minutes.
TAF FOR KOPF (Issued: Mon, May 25th 2015 3:06 PM UTC)
TAF
      AMD KOPF 251505Z 2515/2612 11014KT P6SM VCSH FEW025 SCT035 BKN040
      FM251800 11018G26KT P6SM FEW020 BKN040
      FM260000 10011KT P6SM FEW020 SCT040
     
METAR FOR KOPF (Issued: Mon, May 25th 2015 4:53 PM UTC):
KOPF 251653Z 13014KT 10SM SCT031 31/23 A3017 RMK AO2 LTG DSNT N SLP216 T03110228

This weather information is provided by the National Weather Service.
It is automatically refreshed every three minutes.
TAF FOR KMIA (Issued: Mon, May 25th 2015 4:59 PM UTC)
TAF
      AMD KMIA 251559Z 2516/2612 10014KT P6SM VCSH SCT025 BKN040
      TEMPO 2516/2518 BKN025
      FM251800 11017G25KT P6SM SCT020 BKN040
      FM260100 10011KT P6SM FEW020 SCT040
     
METAR FOR KMIA (Issued: Mon, May 25th 2015 4:53 PM UTC):
KMIA 251653Z 11014KT 10SM BKN026 BKN250 30/23 A3016 RMK AO2 SLP214 T03000228

This weather information is provided by the National Weather Service.
It is automatically refreshed every three minutes.
Design by Ariel Llizo
© Dean International Inc. 2012